SBFLSBPA

Guest
Details From SBFL - Hercillo Luz
To SBPA - Salgado Filho
Flight Number -
Tags generated
Created
Modified
Stats Distance 197 nm / 364 km
Max Altitude 20,700 ft / 6,309 m
Waypoints 3
Social Downloads 4
Likes 0
Share VATSIM

Download

Looking for another format? Having issues loading an existing format? Contact us
Advertisement - Login to hide

Notes

Basic altitude profile: - Ascent Rate: 2500ft/min - Ascent Speed: 250kts - Cruise Altitude: 35000ft - Cruise Speed: 420kts - Descent Rate: 1500ft/min - Descent Speed: 250kts

Route

SBFL BELIC SBPA

ID Type Via Altitude Latitude Longitude Leg Dist Tot Dist Heading (true) Name
O SBFL APT - 0 ft / 0 m -27.67049˚ -48.54718˚ - 0 nm - Hercillo Luz
BELIC FIX - 20,700 ft / 6,309 m -28.91783˚ -49.79683˚ 99 nm 99 nm 221° / 222° -
O SBPA APT - 0 ft / 0 m -29.99443˚ -51.17143˚ 96 nm 196 nm 228° / 228° Salgado Filho

Altitude Profile

Advertisement - Login to hide

Weather


0- 5 10 15 20 25 30 35+ Temperature / ° C

Clouds and Precipitation
Forecast for 2017-12-14 18:00 UTC. Updated 2 hours ago

Ground ~20,000 ft ~40,000 ft Winds

SBFL

Details ICAO SBFL (FLN)
Name Hercillo Luz
Region Brazil
Timezone America/Sao_Paulo (UTC-2.0)
Stats Elevation 19 ft / 6 m (AMSL)
Location -27.670487° -48.547180°
Runways 2
Magnetic Variation 19.320° W

METAR

SBFL 141900Z 01014KT 9999 FEW026 26/20 Q1011

Decode

TAF

TAF SBFL 141500Z 1418/1518 01015KT CAVOK TX29/1418Z TN22/1508Z BECMG 1500/1502 34008KT 9999 SCT030 PROB40 TEMPO 1503/1511 8000 RA SCT010 BKN030 RMK PDW

Decode

Departure Runways

ID Width Length Bearing (true) Bearing (mag) Surface Threshold Offset Overrun Length
03 148 ft / 45 m 4,939 ft / 1,505 m 11.55° 30.87° Concrete 0 ft / 0 m 0 ft / 0 m
14 148 ft / 45 m 7,543 ft / 2,299 m 121.30° 140.62° Asphalt 720 ft / 219 m 0 ft / 0 m
21 148 ft / 45 m 4,939 ft / 1,505 m 191.55° 210.87° Concrete 0 ft / 0 m 0 ft / 0 m
32 148 ft / 45 m 7,543 ft / 2,299 m 301.29° 320.61° Asphalt 0 ft / 0 m 200 ft / 61 m

SBPA

Details ICAO SBPA (POA)
Name Salgado Filho
Region Brazil
Timezone America/Sao_Paulo (UTC-2.0)
Stats Elevation 11 ft / 3 m (AMSL)
Location -29.994428° -51.171426°
Runways 1
Magnetic Variation 16.878° W

METAR

SBPA 141900Z 27017KT 9999 FEW040 FEW045TCU SCT070 30/21 Q1010

Decode

TAF

Not found

Destination Runways

ID Width Length Bearing (true) Bearing (mag) Surface Threshold Offset Overrun Length
11 138 ft / 42 m 7,487 ft / 2,282 m 91.60° 108.48° Asphalt 0 ft / 0 m 230 ft / 70 m
29 138 ft / 42 m 7,487 ft / 2,282 m 271.59° 288.47° Asphalt 0 ft / 0 m 197 ft / 60 m

Approach Navaids

Runway Type Ident Frequency Range Bearing (true) Bearing (mag) Slope Elevation
11 Localiser IPA 110.30 MHz 18 nm / 33 km 90.92° 107.80° - 11 ft / 3 m (AMSL)
11 Glidescope IPA 110.30 MHz 10 nm / 19 km 91.60° 108.48° 3.00° 11 ft / 3 m (AMSL)

Popular Alternatives